Regional Weather Roundup
Issued by NWS

Home | Current Version | Previous Version | Graphics & Text | Print | Product List | Glossary On
Versions: 1 2 3 4 5 6 7 8 9 10 11 12 13 14 15 16 17 18 19 20 21 22 23 24 25 26 27 28 29 30 31 32 33 34 35 36 37 38 39 40 41 42 43 44 45 46 47 48 49 50
000
ASUS43 KMPX 300201
RWRMN
WEATHER ROUNDUP FOR MINNESOTA
NATIONAL WEATHER SERVICE TWIN CITIES/CHANHASSEN MN
900 PM CDT WED MAR 29 2017


NOTE: "FAIR" INDICATES FEW OR NO CLOUDS BELOW 12,000 FEET WITH NO
SIGNIFICANT WEATHER AND/OR OBSTRUCTIONS TO VISIBILITY. N/A MEANS
CURRENT SKY AND/OR WEATHER CONDITIONS ARE NOT AVAILABLE.

MNZ060>063-068>070-300300-
   Twin Cities Metro

CITY           SKY/WX    TMP DP  RH WIND       PRES   REMARKS
TWIN CITIES    LGT RAIN  44  38  79 E16       30.14F
ST PAUL        LGT RAIN  44  38  79 E12G22    30.16F
CRYSTAL        LGT RAIN  44  38  79 E6        30.13F
BLAINE         DRIZZLE   45  41  87 SE3       30.15S
LAKEVILLE      DRIZZLE   39  39 100 E15G21    30.13F
EDEN PRAIRIE   LGT RAIN  44  39  82 E13       30.12F
SOUTH ST PAUL  CLOUDY    44  38  81 SE5       30.15F
LAKE ELMO      CLOUDY    43  37  81 SE14      30.16F
$$
MNZ001>005-007-008-013>017-022>024-027-028-300300-
   Northwest Minnesota

CITY           SKY/WX    TMP DP  RH WIND       PRES   REMARKS
BEMIDJI        PTCLDY    42  31  62 SE9       30.09S
HALLOCK        PTCLDY    50  43  76 S16       29.96S
ROSEAU         CLEAR     46  37  71 S6        30.01S
WARROAD        PTCLDY    48  36  61 SE10      30.03S
THIEF RVR FALL   N/A    N/A N/A N/A MISG        N/A
CROOKSTON      CLOUDY    48  39  71 S15       30.03S
FOSSTON        CLEAR     43  32  65 S9        30.07S
DETROIT LAKES  CLOUDY    45  32  61 S8        30.10R
MOORHEAD       CLOUDY    46  37  71 S16       30.08R
PARK RAPIDS    CLOUDY    45  31  58 SE9       30.10R
MAHNOMEN       FAIR      43  33  67 S7        30.07S
$$
MNZ006-009>011-018-025>026-300300-
   North Central Minnesota

CITY           SKY/WX    TMP DP  RH WIND       PRES   REMARKS
BAUDETTE       CLEAR     46  31  55 SE9       30.05S
FLAG ISLAND    CLOUDY    39  30  70 SE6       30.02S
INTL FALLS     CLEAR     41  29  62 SE9       30.11R
WASKISH        CLEAR     45  34  65 SE6       30.09R
BIG FORK       PTCLDY    43  30  61 SE8       30.13S
LONGVILLE      CLOUDY    43  34  70 SE6       30.13S
GRAND RAPIDS   CLOUDY    38  30  73 SE3       30.18R
CRANE LAKE     CLOUDY    36  25  64 CALM      30.18S
ORR            CLOUDY    39  25  56 CALM      30.13S
COOK           CLOUDY    37  27  65 E3        30.17S
WALKER         FAIR      45  30  56 SE6       30.11S
$$
MNZ012-019>021-037-300300-
   Northeast Minnesota

CITY           SKY/WX    TMP DP  RH WIND       PRES   REMARKS
DULUTH         PTCLDY    32  27  81 E12       30.19S WCI  23
ELY            CLOUDY    34  25  69 SE5       30.19S WCI  30
HIBBING        CLOUDY    34  27  75 SE7       30.17R WCI  28
EVELETH        CLOUDY    35  24  63 E3        30.19S
DULUTH HARBOR  CLOUDY    36  32  87 NE20      30.24S
TWO HARBORS    CLOUDY    36  28  75 E8        30.20S
GRAND MARAIS     N/A     34  25  69 NE8       30.26S WCI  27
G MARAIS ARPRT PTCLDY    28  18  64 NE7       30.21F WCI  21
$$
MNZ029>031-032-039>041-046>048-054>057-064-300300-
   West Central Minnesota

CITY           SKY/WX    TMP DP  RH WIND       PRES   REMARKS
FERGUS FALLS   CLOUDY    43  36  75 S9        30.14R
WHEATON        CLOUDY    43  36  75 SE9       30.12S
MORRIS         CLOUDY    41  37  87 SE7       30.11R
ALEXANDRIA     CLOUDY    42  36  79 S8        30.12S
ELBOW LAKE     FAIR      39  35  86 S9        30.11S
WADENA         PTCLDY    41  34  75 CALM      30.11R
GLENWOOD       PTCLDY    39  36  87 SE6       30.12S
APPLETON       CLOUDY    45  37  76 SE10      30.10F
BENSON         CLOUDY    46  37  71 S7        30.13S
ORTONVILLE     CLOUDY    43  37  81 SE9       30.11R
MADISON        CLOUDY    45  39  81 SE9       30.10S
WILLMAR        MOCLDY    43  39  87 SE7       30.12F
$$
MNZ033>034-036-042>043-049>051-058-059-300300-
   Central Minnesota

CITY           SKY/WX    TMP DP  RH WIND       PRES   REMARKS
ST CLOUD       MOCLDY    43  37  79 SE3       30.12F
SAUK CENTRE    FAIR      39  36  87 S3        30.11F
PAYNESVILLE    CLOUDY    42  38  87 E3        30.12F
AITKIN         PTCLDY    37  30  75 E7        30.14F
PINE RIVER     PTCLDY    43  32  65 SE7       30.15S
BRAINERD       PTCLDY    42  32  67 E5        30.13F
STAPLES        CLOUDY    45  32  61 SE3       30.11F
LONG PRAIRIE   FAIR      37  34  87 SE5       30.12S
LITTLE FALLS   CLOUDY    43  32  65 E3        30.13S
LITCHFIELD     DRIZZLE   43  41  93 E7        30.12F
BUFFALO        DRIZZLE   42  39  90 E5        30.14F
MAPLE LAKE     MOCLDY    43  41  91 CALM      30.14S
HUTCHINSON     DRIZZLE   42  41  95 E13       30.12F
$$
MNZ037-044-045-052-053-300300-
   East Central Minnesota

CITY           SKY/WX    TMP DP  RH WIND       PRES   REMARKS
PRINCETON      CLOUDY    46  36  66 E3        30.14S
MORA           CLOUDY    37  32  81 NE3       30.17S
CAMBRIDGE      CLOUDY    48  36  61 CALM      30.13S
RUSH CITY      CLOUDY    43  33  67 CALM      30.15F
MOOSE LAKE     CLOUDY    32  30  93 E6        30.17S WCI  26
CLOQUET        CLOUDY    32  28  86 E9        30.18F WCI  24
MCGREGOR       CLOUDY    32  30  93 E7        30.17S WCI  26
$$
MNZ071>073-080-081-089-090-097-098-300300-
   Southwest Minnesota

CITY           SKY/WX    TMP DP  RH WIND       PRES   REMARKS
MONTEVIDEO     CLOUDY    43  37  81 SE14G22   30.10F
GRANITE FALLS  CLOUDY    43  39  88 E13G18    30.10F
CANBY          CLOUDY    42  38  85 CALM      30.09S
MARSHALL       LGT RAIN  41  38  89 E16       30.08S
REDWOOD FALLS  LGT RAIN  41  37  86 E12       30.08F
OLIVIA         CLOUDY    41  37  87 E12       30.09F
PIPESTONE      DRIZZLE   39  34  81 E12G18    30.03S
WINDOM         LGT RAIN  37  37 100 E20       30.04F
WORTHINGTON    LGT RAIN  37  35  92 E20       30.01F
JACKSON        LGT SNOW  36  36 100 E18G25    30.03F
TRACY          DRIZZLE   40  38  93 E9        30.07F
SLAYTON        DRIZZLE   37  36  95 E15       30.05F
$$
MNZ065>067-074>077-082>085-091>093-300300-
   South Central Minnesota

CITY           SKY/WX    TMP DP  RH WIND       PRES   REMARKS
MANKATO        LGT RAIN  40  37  89 E17       30.08F
NEW ULM        LGT RAIN  39  37  93 E16       30.08F
ST JAMES       RAIN      39  37  93 E15       30.07F
FAIRMONT       LGT RAIN  39  37  92 E14       30.04F
GLENCOE        CLOUDY    41  41 100 E13G21    30.11F
FARIBAULT      LGT RAIN  39  39 100 E14G21    30.10F
OWATONNA       LGT RAIN  39  37  93 E15G21    30.08F
WASECA         LGT RAIN  39  36  87 E16G25    30.09F
ALBERT LEA     RAIN      37  37 100 E18G26    30.04F
$$
MNZ078>079-086>088-094>096-300300-
   Southeast Minnesota

CITY           SKY/WX    TMP DP  RH WIND       PRES   REMARKS
ROCHESTER      LGT RAIN  39  38  96 E17G26    30.09F
RED WING       LGT RAIN  43  39  87 E10       30.14F
STANTON        DRIZZLE   42  38  86 E13G20    30.11F
DODGE CENTER   LGT RAIN  37  37 100 E21       30.09S
WINONA         LGT RAIN  41  37  87 E13       30.15F
AUSTIN         LGT RAIN  39  36  87 E15       30.06F
PRESTON        LGT RAIN  38  36  89 E17G23    30.09F
$$
ABBREVIATIONS USED IN REMARKS
   TC - TEMPERATURES IN CELSIUS
  WCI - WIND CHILL INDEX
   HX - HEAT INDEX
  VSB - VISIBILITY
$$




USA.gov is the U.S. government's official web portal to all federal, state and local government web resources and services.